Location: Sternwarte_Laufen
(47.9344°N, 12.9346°E)
Time: 01:07:48
(UTC+02:00)

Envisat - Pass Details

Date: 15 May 2026
Orbit: 761 x 763 km, 98.4° (Epoch: 7 June)

Event Time Altitude Azimuth Distance (km) Brightness Sun altitude
Rises 04:11:58 0° 11° (NNE) 3,236 7.3 -11.2°
Reaches altitude 10° 04:14:18 10° 9° (N) 2,306 6.4 -10.9°
Maximum altitude 04:19:19 66° 288° (WNW) 830 3.1 -10.3°
Enters shadow 04:24:13 11° 207° (SSW) 2,247 4.8 -9.7°
